COSMOS 970 DEB *, 17732

Orbit data source: Space-Track

COSMOS 970 DEB *, 17732 is space debris in LEO originally from a launch on Wed, 21 Dec 1977 UTC launched from the Tyuratam Missile And Space Complex (TTMTR). Debris objects in space refer to the collection of defunct objects orbiting the Earth. Examples of debris include non-operational satellites, rocket bodies, and fragments generated from explosions, collisions, or faulty payload assembly.

Loading next visibility...
Identifier
17732, 1977-121BP
Orbit
LEO
Country
Flag of CISCIS
Related business
Manufacturer
Unknown
Mission
Spacecraft
Bus & Motor
Unknown
Mass
Unknown
Launch date (UTC)
1977-12-21 (48 years ago)
Launch vehicle
Unknown
Launch site
Tyuratam Missile And Space Complex (TTMTR)
Object type
Payload
Rocket body
Debris
Shape & HBR
Unknown shape, 0.1 m
Radar Cross Section
Medium (>0.1 m² and <1 m²)

Expand to show TLE details & history
Last TLE update: 17 hours ago

TLE from 17 hours ago
0 COSMOS 970 DEB *
1 17732U 77121BP  26171.26110913  .00001394  00000-0  88537-3 0  9999
2 17732  65.8062 278.7460 0170143 218.4061 140.4804 14.00094142 90556
Epoch: 2026-06-20T06:15Z
TLE epoch observation values (Epoch: 2026-06-20T06:15:59.828Z)
Latitude
-0.00005°
Longitude
-83.73158°
Altitude
991.762 km
Speed
7.307 km/s
True Right ascension
18h 34m 59s
True Declination
0° 00' 00"
Sunlit
Object was in full shadow at epoch
Visualization orbit readout
Latitude
Unknown
Longitude
Unknown
Altitude
Unknown
Speed
Unknown
Apparent Right ascension
Unknown
Apparent Declination
Unknown
Sunlit
N/A
Visualization observer readout
Local Sidereal Time
10:12:24
Azimuth
Unknown
Elevation
Unknown
Doppler factor
Unknown
Orbital elements
Apogee altitude
1,015.667 km
Perigee altitude
768.275 km
Semi-major axis
7,270.108 km
Eccentricity
0.01701
Inclination
65.8062°
RAAN
278.746°
Arg. of periapsis
218.4061°
True anomaly
141.70094°
Mean anomaly
140.4804°
Eccentric anomaly
141.09267°
Mean motion
3.50132 °/min
Orbital period
102.82 mins
BSTAR
0.00088537
Loading maneuver chart data...
Computing Atmospheric mass density...
Loading historical data...
Loading historical data...
Loading historical data...
Loading historical data...
Loading historical data...
Loading historical data...
Loading historical data...

Documentation

Showing up to 5 results
|